This is the latest recevied weather packets stored in our database for station/object KI6AOK. If no packets are shown the sender has not sent any weather packets the latest 10 day(s).
| Time | Temp. | Humidity | Pressure | Rain* | Wind** | Luminosity | Snow |
|---|---|---|---|---|---|---|---|
| 1777780460 | 15.56° C | 84% | 1011.6 hPa | 0 mm | - | 0 W/m² | - |
| 1777780158 | 15.56° C | 84% | 1011.9 hPa | 0 mm | - | 0 W/m² | - |
| 1777779855 | 15.56° C | 84% | 1011.7 hPa | 0 mm | - | 0 W/m² | - |
| 1777779552 | 15.56° C | 84% | 1011.7 hPa | 0 mm | - | 0 W/m² | - |
| 1777779249 | 15.56° C | 84% | 1011.8 hPa | 0 mm | - | 0 W/m² | - |
| 1777778947 | 15.56° C | 84% | 1011.6 hPa | 0 mm | - | 0 W/m² | - |
| 1777778646 | 15.56° C | 83% | 1011.6 hPa | 0 mm | - | 0 W/m² | - |
| 1777778343 | 15.56° C | 83% | 1011.5 hPa | 0 mm | - | 0 W/m² | - |
| 1777778040 | 16.11° C | 83% | 1011.2 hPa | 0 mm | - | 0 W/m² | - |
| 1777777736 | 16.11° C | 83% | 1011.7 hPa | 0 mm | - | 0 W/m² | - |
| 1777777433 | 16.11° C | 83% | 1011.3 hPa | 0 mm | - | 0 W/m² | - |
| 1777777129 | 16.11° C | 82% | 1011.5 hPa | 0 mm | - | 0 W/m² | - |
| 1777776827 | 16.11° C | 82% | 1011.3 hPa | 0 mm | - | 0 W/m² | - |
| 1777776524 | 16.11° C | 82% | 1011.4 hPa | 0 mm | - | 0 W/m² | - |
| 1777776221 | 16.11° C | 82% | 1011.2 hPa | 0 mm | - | 0 W/m² | - |
| 1777775917 | 16.67° C | 81% | 1011.1 hPa | 0 mm | - | 1 W/m² | - |
| 1777775615 | 16.67° C | 81% | 1011.3 hPa | 0 mm | - | 3 W/m² | - |
| 1777775311 | 16.67° C | 81% | 1011.4 hPa | 0 mm | - | 4 W/m² | - |
| 1777775006 | 16.67° C | 80% | 1011.3 hPa | 0 mm | - | 6 W/m² | - |
| 1777774703 | 16.67° C | 79% | 1011 hPa | 0 mm | - | 10 W/m² | - |
| 1777774399 | 17.22° C | 79% | 1010.9 hPa | 0 mm | - | 17 W/m² | - |
| 1777774097 | 17.22° C | 79% | 1010.9 hPa | 0 mm | - | 19 W/m² | - |
| 1777773795 | 17.78° C | 78% | 1011.2 hPa | 0 mm | - | 28 W/m² | - |
| 1777773491 | 17.78° C | 77% | 1011.2 hPa | 0 mm | - | 40 W/m² | - |
| 1777773188 | 17.78° C | 77% | 1011 hPa | 0 mm | - | 44 W/m² | - |
* Rain latest hour (hover to see other rain measurements)
** Current wind speed in m/s (hover to see current wind gust speed)